Tracking 19908 objects as of 18-Oct-2019
HD Live streaming from Space Station
objects crossing your sky now

ALEXIS

Track ALEXIS now!
10-day predictions
ALEXIS is classified as:


NORAD ID: 22638
Int'l Code: 1993-026A
Perigee: 743.4 km
Apogee: 827.5 km
Inclination: 69.9 °
Period: 100.4 minutes
Semi major axis: 7156 km
RCS: Unknown
Launch date: April 25, 1993
Source: United States (US)
Launch site: AIR FORCE WESTERN TEST RANGE (AFWTR)
aabbcc
Your satellite tracking list
Your tracking list is empty




NASA's NSSDC Master Catalog

Two Line Element Set (TLE):
1 22638U 93026A   19248.90799234 0.00000050  00000-0  17529-4 0    04
2 22638  69.9306 180.1746 0058793 303.2517  56.7482 14.34030522    02
Source of the keplerian elements: McCants